Regional Weather Roundup
Issued by NWS

Home | Current Version | Previous Version | Text Only | Print | Product List | Glossary Off
Versions: 1 2 3 4 5 6 7 8 9 10 11 12 13 14 15 16 17 18 19 20 21 22 23 24 25 26 27

000
ASUS45 KSLC 220810
RWRUT

UTAH REGIONAL WEATHER ROUNDUP
NATIONAL WEATHER SERVICE SALT LAKE CITY UT
100 AM MST MON JAN 22 2018

UTZ001>011-023>025-220900-

NORTHERN UTAH

CITY           SKY/WX    TMP DP  RH WIND       PRES   REMARKS
BRIGHAM CITY   CLEAR     25  19  78 CALM      30.30F
HILL AFB       CLOUDY    21  13  71 E12       30.28S WCI   9
LOGAN          HAZE      11   5  77 CALM      30.29S VSB 1
OGDEN          CLEAR     21  14  74 SE7       30.29S WCI  12
SALT LAKE CITY PTCLDY    25  17  72 SE6       30.30S WCI  18
TOOELE VALLEY  PTCLDY    19  14  79 SW7       30.31R WCI  10
WENDOVER       PTCLDY    21  16  81 NE10      30.28S WCI  10
HEBER CITY       N/A      7   3  85 S3        30.26S
WEST JORDAN    PTCLDY    20  16  84 SW8       30.30R WCI  10

$$

UTZ011>015-024>027-220900-

CENTRAL/NORTHEAST UTAH

CITY           SKY/WX    TMP DP  RH WIND       PRES   REMARKS
PROVO AIRPORT  PTCLDY    16  13  88 SE5       30.33S WCI   9
MOAB/CANYONLAN CLEAR     23  17  78 CALM      30.21S
DELTA          MOCLDY     5   3  92 E7        30.32S WCI  -7
PRICE          PTCLDY    16   8  71 SE3       30.17S
RICHFIELD      CLEAR      5   5 100 CALM      30.31S
ROOSEVELT      PTCLDY    16  10  79 W3        30.22S
VERNAL         PTCLDY    11   5  77 W6        30.20S WCI   1

$$

UTZ013>016-019>022-027-220900-

SOUTHERN UTAH

CITY           SKY/WX    TMP DP  RH WIND       PRES   REMARKS
BRYCE CANYON   MOCLDY     2  -1  88 W12       30.22R WCI -15
CEDAR CITY     MOCLDY     4   1  88 NE7       30.27F WCI  -8
MILFORD        NOT AVBL
ST GEORGE      MOSUNNY   30  24  78 SE6       30.33S WCI  24
HANKSVILLE     CLEAR     16   5  62 W3        30.27S
KANAB          CLEAR     21  10  63 S2        30.32S
BLANDING         N/A     16   8  72 CALM      30.25S

$$

REGIONAL REPORTS     COLORADO/ARIZONA

CITY           SKY/WX    TMP DP  RH WIND       PRES   REMARKS
CRAIG, CO      MOCLDY     6   2  83 CALM      30.16F
GRAND JUNCTION PTCLDY    11   7  84 E3        30.21S
RIFLE, CO      PTCLDY    22  15  75 NW6       30.19S WCI  14
MONTROSE, CO   CLEAR     18  12  77 S5        30.22S WCI  11
CORTEZ, CO     CLEAR      9   6  88 E3        30.18R
COLORADO CITY    N/A     19  18  93 SE3       30.30S
PAGE, AZ       CLEAR     31  10  41 W3        30.25S
GRAND CANYON   PTCLDY     5   1  83 NE8       30.23S WCI  -8
KINGMAN, AZ    PTCLDY   N/A N/A N/A E6        30.29F
FLAGSTAFF, AZ  PTCLDY     5   1  83 CALM      30.19F

$$

REGIONAL REPORTS    NEVADA/IDAHO/WYOMING

CITY           SKY/WX    TMP DP  RH WIND       PRES   REMARKS
LAS VEGAS, NV  MOCLDY    40  22  48 CALM      30.31F
ELY, NY        PTCLDY    -2  -6  83 S12       30.27S WCI -20
ELKO, NV       CLOUDY    26  19  74 SW3       30.22F
POCATELLO, ID  CLEAR     29  18  63 S12       30.21F WCI  19
BURLEY, ID     MOCLDY    34  18  52 S18G25    30.18F WCI  23
FORT BRIDGER,    N/A     10   5  79 W15       30.18S WCI  -6
EVANSTON, WY   PTCLDY     7   5  91 SW12      30.17F WCI  -8
ROCK SPRINGS,  CLEAR     11   6  81 W20       30.11F WCI  -7

$$




USA.gov is the U.S. government's official web portal to all federal, state and local government web resources and services.